RH
41 38 38 36 40 43 47 51 52 48 49 51 53 44 40 34 33 32 37 37 32 23 20 19 18 16 14 15 19 32 50 41 42 38 35 33 28 26 27 28 29 31 33
41 46 43 42 42 42 46 57 49 50 59 62 55 43 49 33 33 34 38 38 29 27 26 25 22 21 19 15 15 17 26 47 43 46 46 41 34 35 33 32 33 34 35
43 52 52 47 44 51 54 51 42 43 55 67 50 46 59 40 38 36 37 38 32 33 33 33 32 26 24 25 21 16 17 20 44 48 57 62 66 54 39 40 42 40 39
44 51 52 46 49 54 45 41 43 54 60 60 45 52 65 58 40 36 35 38 39 38 40 42 40 34 32 28 26 25 22 19 21 45 56 67 66 73 74 72 66 62 62
53 55 52 52 52 54 54 50 58 85 73 53 62 79 80 66 41 37 37 34 38 39 38 36 38 46 46 42 34 28 26 27 22 25 34 55 71 77 77 71 67 66 69
67 66 64 61 62 58 57 59 72 91 75 62 70 93 73 45 44 38 38 37 35 32 33 33 33 35 38 41 44 41 39 33 31 31 27 25 29 39 48 47 42 46 45
64 62 64 64 64 65 72 70 71 83 76 72 64 92 64 50 48 43 41 42 41 41 39 42 41 36 34 35 33 37 40 41 40 39 35 34 34 30 25 26 33 38 44
64 61 66 76 74 68 66 74 70 70 78 75 87 80 62 59 54 50 42 45 48 44 51 49 47 40 36 35 33 33 32 38 40 42 44 43 39 38 38 36 34 32 31
63 61 71 90 88 78 87 87 81 71 75 83 91 87 71 66 59 53 51 49 51 58 52 44 42 42 40 38 30 25 26 26 36 47 44 40 45 45 43 43 43 43 42
66 73 86 83 78 90 92 89 83 85 96 100 94 91 79 72 61 54 48 45 48 46 44 44 43 40 31 28 24 19 17 16 15 15 17 20 31 36 44 49 49 48 48
63 65 73 76 80 87 87 79 87 98 100 93 96 92 87 72 61 54 46 48 48 51 44 38 32 28 24 22 20 19 18 16 15 15 13 13 13 15 22 31 43 48 52
79 83 84 84 84 82 74 81 85 86 89 100 100 95 82 67 57 47 46 49 42 34 34 28 24 22 21 20 19 18 18 16 16 15 15 14 13 12 12 12 14 23 33
85 88 90 92 85 82 86 94 97 100 100 100 98 87 74 63 55 45 34 32 30 25 22 23 23 21 20 18 16 16 16 16 14 14 15 15 14 13 12 12 12 12 12
85 88 99 90 88 86 89 100 100 100 100 100 88 75 68 60 45 29 27 24 22 23 22 19 18 18 18 17 16 15 14 13 12 13 14 14 14 14 14 13 13 13 13
97 99 100 100 100 100 100 100 100 100 100 84 74 72 64 44 27 21 17 20 22 22 18 15 16 15 14 13 13 12 12 12 12 13 14 14 14 14 15 14 14 14 14
100 100 100 100 100 100 100 100 100 94 87 82 77 63 40 24 20 16 19 20 23 21 16 15 13 13 12 12 11 11 12 12 13 12 12 13 14 14 15 16 15 15 15
100 100 100 100 100 100 100 100 85 99 88 77 54 34 22 18 18 19 22 26 24 19 14 13 13 12 12 13 16 17 16 16 16 16 17 16 18 19 20 19 19 20 20
100 100 100 100 100 98 78 90 100 98 77 54 36 23 19 20 23 23 28 24 22 18 13 13 12 13 17 19 22 22 22 23 23 23 22 21 24 25 24 24 23 22 23
100 100 100 89 78 78 100 100 99 73 56 36 18 20 20 21 23 28 19 22 21 14 14 13 15 16 15 18 20 22 24 26 28 28 28 29 29 29 28 27 26 26 26
100 97 67 74 98 100 100 100 82 51 25 20 20 20 20 23 27 20 20 20 17 14 15 19 17 17 18 22 23 25 25 28 28 29 30 29 29 30 29 29 30 31 32
82 64 98 100 100 100 100 79 53 33 25 26 20 21 22 26 23 21 20 21 18 21 22 20 21 21 23 23 24 25 26 28 33 39 43 42 42 43 42 43 45 45 45
76 100 100 100 100 100 88 53 44 29 25 26 22 22 26 25 23 23 26 23 26 25 22 25 24 26 28 28 29 32 37 42 44 42 47 50 52 54 55 52 49 48 49
100 100 100 100 96 68 48 35 28 24 26 28 23 24 25 25 24 27 27 27 31 25 30 30 29 29 30 34 37 38 39 48 60 63 54 61 64 62 61 62 63 62 66
97 85 87 85 68 45 35 29 26 26 32 27 23 27 26 28 29 29 28 32 27 32 34 36 43 46 54 48 50 53 54 56 54 62 69 66 74 88 88 73 70 74 80
61 70 56 42 37 37 32 30 28 32 37 27 25 27 28 31 32 29 31 28 28 34 38 51 58 54 52 58 67 72 78 82 76 74 77 73 72 87 96 97 87 84 75
32 33 35 36 35 33 34 34 34 40 41 30 28 31 32 33 32 34 31 27 30 35 56 58 49 57 60 68 77 81 82 80 83 87 85 84 72 68 68 73 84 94 92
Wind_Speed
27 24 23 23 24 24 24 23 21 19 19 18 17 21 25 23 24 30 25 23 25 24 23 21 21 21 21 22 25 31 32 32 30 28 28 27 28 29 29 30 30 29 29
29 27 26 25 24 23 24 24 22 22 22 22 22 23 25 23 26 30 25 24 24 24 24 24 24 23 23 22 23 27 33 35 34 32 32 32 31 31 32 33 33 34 35
32 31 30 27 25 24 24 24 25 25 26 24 25 26 27 25 26 28 24 24 24 25 26 28 29 27 25 25 25 26 28 33 37 36 35 35 35 36 37 38 39 39 40
34 34 33 30 27 25 27 29 28 27 27 27 26 26 27 28 27 28 24 24 26 27 30 31 30 30 30 29 27 26 26 29 34 38 40 40 40 40 40 40 42 42 43
35 36 34 32 29 28 27 26 27 27 30 29 28 30 29 30 29 28 23 25 27 31 35 35 33 33 34 34 34 32 29 29 31 34 38 41 43 43 44 45 46 46 46
36 36 36 35 32 30 29 29 30 31 32 31 30 30 32 30 33 29 27 29 30 34 38 38 40 40 40 38 37 38 38 36 34 35 37 39 41 44 46 47 49 50 51
36 35 35 36 35 34 32 34 33 34 35 36 34 35 36 32 35 33 34 37 37 39 42 44 45 43 43 41 41 42 42 43 43 42 41 42 44 45 45 45 45 46 46
37 36 36 37 37 36 36 36 35 36 35 37 38 37 35 38 40 41 42 43 43 45 47 48 47 46 43 45 46 47 47 48 48 48 49 49 48 48 49 49 50 50 49
39 40 38 39 40 39 38 37 36 37 37 39 41 40 38 43 45 46 48 48 48 50 50 50 50 49 49 51 50 49 50 51 53 53 54 54 55 56 54 54 54 53 53
41 42 41 40 43 42 41 40 38 37 37 41 42 43 41 45 48 50 51 51 52 52 52 51 51 51 52 53 52 53 52 53 54 55 58 58 59 60 60 61 60 59 58
43 42 39 41 41 42 42 40 38 37 41 43 44 41 46 49 54 52 52 53 54 54 53 53 53 54 54 54 55 57 57 57 56 56 56 56 57 59 60 61 64 64 64
45 41 40 41 40 41 42 40 39 42 44 43 40 48 51 55 53 54 55 56 56 55 55 56 57 58 59 61 62 63 63 64 64 62 61 59 57 56 58 60 62 64 64
42 42 41 40 41 41 40 39 40 43 43 43 48 54 55 55 55 57 57 58 57 57 58 58 59 61 64 65 65 66 67 67 66 67 66 63 62 62 62 62 62 63 63
42 41 40 40 38 37 38 40 41 42 44 48 54 55 55 57 58 59 58 58 58 57 58 59 61 63 65 67 70 71 71 72 71 69 71 70 67 66 65 64 65 66 66
41 39 37 36 37 39 41 42 43 46 51 55 54 55 57 59 59 58 59 59 60 61 63 65 67 69 72 74 75 76 77 75 74 74 72 71 71 70 70 69 68 67 68
37 37 39 39 39 41 43 45 47 54 54 53 55 57 58 58 60 59 60 62 63 65 68 71 74 76 77 78 79 79 76 73 72 72 72 71 72 71 71 69 70 69 69
38 41 43 43 44 46 47 51 56 55 54 55 57 57 58 58 59 60 63 64 66 70 74 76 78 78 80 77 70 63 59 58 57 57 56 55 56 58 59 60 63 64 65
43 46 46 47 48 53 54 56 56 54 55 56 58 58 57 57 58 60 62 65 70 75 77 78 78 76 66 60 59 55 52 50 49 48 48 48 48 50 52 53 56 58 59
47 47 50 51 52 55 57 55 53 55 56 57 56 56 59 58 57 59 62 67 72 76 76 77 70 59 50 48 49 51 51 50 49 47 46 45 45 46 47 51 52 53 55
52 53 49 52 55 56 54 52 53 54 55 56 58 59 58 58 59 61 65 66 72 76 74 61 55 52 50 46 42 39 38 35 33 31 31 32 33 36 38 39 39 40 41
54 49 54 57 55 51 51 52 53 54 55 58 59 58 56 59 61 61 69 72 73 68 60 51 50 48 42 39 35 31 29 26 25 25 26 28 29 31 32 34 35 36 37
53 56 55 55 51 52 52 54 55 56 59 62 60 57 58 60 61 67 73 74 66 58 51 50 45 38 35 34 29 27 26 26 27 27 27 29 31 33 35 37 38 40 41
54 54 54 53 54 54 55 56 57 60 62 64 59 58 59 63 65 73 75 70 57 50 48 46 42 40 34 31 28 26 25 25 27 32 31 33 36 38 39 39 42 44 46
56 57 56 56 57 57 59 60 61 63 65 63 59 60 62 66 70 75 74 61 50 44 50 40 34 31 25 23 26 28 29 31 34 35 36 38 40 44 48 48 48 49 51
55 56 56 56 58 60 62 64 65 66 67 65 61 62 66 70 75 75 68 52 46 46 45 35 29 26 28 31 31 33 35 37 38 41 44 44 44 47 50 54 56 58 58
55 56 57 60 62 64 65 67 68 69 68 67 64 66 69 74 78 76 63 49 44 46 39 33 31 31 34 34 36 39 40 41 44 46 48 52 54 55 57 58 61 65 66
Wind_Direction
242 249 252 260 261 263 266 274 276 279 276 280 302 325 329 329 335 340 330 324 321 324 323 322 320 315 309 296 277 263 259 258 255 254 255 255 253 254 253 252 257 258 259
241 245 249 257 261 265 267 268 273 276 273 273 285 299 317 320 332 336 324 318 320 321 323 325 321 315 310 308 297 283 264 258 257 256 258 258 255 250 250 251 254 258 262
243 243 246 252 257 263 266 267 270 271 271 270 282 292 297 312 325 328 318 312 310 315 316 317 316 315 311 305 302 298 285 269 259 258 259 261 263 261 258 257 257 258 259
245 246 249 253 257 261 265 268 269 268 266 269 279 293 292 305 322 322 314 308 304 308 312 312 310 308 308 305 299 295 292 285 271 263 259 261 263 262 261 262 262 263 264
246 248 251 253 256 261 268 267 264 271 267 270 280 289 290 298 317 316 305 306 300 299 303 305 303 303 302 301 300 297 292 286 283 276 267 263 262 262 262 264 265 264 264
244 247 251 254 256 263 267 266 265 266 267 271 285 285 290 296 313 313 301 302 299 300 302 303 304 301 298 294 292 293 293 290 285 280 278 276 272 268 265 265 266 267 268
245 248 254 255 257 263 268 267 268 272 271 270 280 283 291 296 309 308 304 302 301 302 304 303 302 298 294 292 292 287 283 283 284 283 279 276 275 274 273 271 269 269 269
243 248 254 255 259 266 268 271 270 274 275 277 279 287 291 298 303 306 305 301 301 303 301 301 300 296 293 292 290 287 285 280 277 275 276 277 275 272 272 271 271 270 270
243 249 256 258 261 266 270 271 268 272 277 280 280 285 288 300 301 303 304 303 302 301 302 301 299 298 294 294 292 287 282 278 275 273 273 272 271 272 271 270 270 269 270
246 251 255 258 261 267 270 271 272 277 280 280 282 281 290 299 300 302 302 303 304 302 302 301 298 296 294 291 290 289 286 284 281 278 275 272 270 268 267 268 268 268 268
248 254 258 259 260 267 271 274 275 280 278 278 279 285 298 299 301 303 302 302 302 300 299 298 296 294 292 289 289 291 289 285 282 279 278 277 276 272 269 266 266 266 267
249 254 256 260 266 268 271 276 279 277 277 279 281 292 298 299 299 301 302 300 297 297 296 296 296 294 293 292 290 288 286 284 283 281 281 282 279 277 276 274 268 266 265
250 255 258 262 265 270 274 276 276 274 276 280 287 293 297 297 299 300 299 298 298 298 298 297 296 294 291 290 289 289 286 285 284 281 280 283 281 279 276 274 270 267 264
249 254 261 265 268 271 271 272 272 273 277 285 292 295 295 297 298 298 299 297 298 299 298 296 294 291 290 291 291 290 288 286 286 285 282 282 281 279 278 275 273 270 266
250 253 259 263 266 267 266 267 269 275 283 289 291 292 295 296 298 299 299 299 300 301 301 295 293 293 293 293 292 291 290 287 284 282 281 280 279 277 276 275 273 273 271
244 249 253 257 260 264 265 268 273 282 286 287 290 293 296 297 298 299 299 300 302 302 298 297 297 297 295 295 293 292 291 288 286 282 279 277 276 276 275 273 272 273 271
246 250 251 254 257 262 268 274 281 282 284 289 292 294 296 297 298 300 300 303 305 300 299 300 300 300 299 296 296 295 294 294 291 286 283 281 278 276 276 274 274 272 271
241 244 250 256 263 272 278 276 278 281 286 290 292 294 296 300 301 300 305 304 303 301 302 303 304 302 299 300 299 298 296 294 292 289 285 282 281 279 276 274 272 271 271
244 250 265 271 273 273 274 276 279 284 288 291 294 297 298 299 303 308 302 303 302 303 305 304 303 303 306 306 305 300 295 292 290 289 288 286 284 281 279 278 279 279 278
254 263 269 268 270 272 273 278 283 287 291 293 297 298 297 302 308 305 304 303 305 307 306 306 309 310 312 307 303 300 299 297 296 295 293 290 289 288 289 290 289 288 286
258 260 264 267 270 272 276 280 285 289 293 299 299 298 301 309 308 309 309 311 310 309 308 312 312 310 306 303 300 297 294 296 300 302 302 301 297 296 295 294 291 291 290
257 259 261 266 271 276 280 283 286 289 294 299 297 299 307 309 312 314 314 313 312 309 311 311 305 304 299 299 298 299 301 302 300 298 304 307 308 307 305 302 299 298 296
255 260 266 272 276 278 281 285 288 292 296 298 297 302 307 310 313 313 313 313 309 309 308 302 299 299 295 296 297 299 303 308 314 313 313 315 313 311 308 304 304 304 304
259 264 268 272 275 279 282 285 288 292 296 298 298 303 307 312 313 311 313 309 305 304 301 293 291 292 298 305 309 309 310 315 318 315 312 312 315 315 312 311 309 308 306
262 265 269 272 276 280 283 285 288 293 296 298 297 302 306 309 313 310 310 304 300 297 292 283 283 292 297 301 305 307 308 308 308 309 309 308 307 307 306 304 305 304 301
264 268 271 275 278 281 284 288 291 292 296 297 297 301 304 306 309 309 305 299 294 293 279 274 279 286 291 295 297 300 300 302 303 303 303 303 303 303 303 302 301 301 300